contact: severine.martini@mio.osupytheas.fr, dominique.lefevre@mio.osupytheas.fr
Project:EMSO Ligure-ouest http://www.emso-fr.org/EMSO-France
Sensor Optode, line 4330 Serial 272 
DOI : "https://doi.org/10.17882/97948" 
Title:EMSO Ligure Ouest : Data BathyDock capteur Optode - deploiement "2023-04-28"
Datetime,Profondeur,Latitude,Longitude,optode_type,serial,O2_concentration,O2_saturation,Temperature,Calibrated_Phase,Temp_Compensated_Phase,phase_blue_light,phase_red_light,Amplitude_blue_light,Amplitude_red_light,thermistor_bridge
time,m,degree_north,degree_east,1,1,umol.l-1,%,degree_C,degree,degree,degree,degree,mV,mV,mV
2023-12-29T00:00:07,2420,42.8014,5.9826,4330,272,185.938,56.968,13.326,36.067,36.646,41.237,4.590,296.1,545.2,290.7
2023-12-29T00:03:07,2420,42.8014,5.9826,4330,272,186.063,57.010,13.329,36.057,36.637,41.223,4.587,296.0,545.2,290.6
2023-12-29T00:06:07,2420,42.8014,5.9826,4330,272,185.684,56.899,13.333,36.080,36.659,41.248,4.589,295.9,545.2,290.5
2023-12-29T00:09:08,2420,42.8014,5.9826,4330,272,185.916,56.969,13.332,36.065,36.645,41.233,4.589,296.0,545.2,290.5
2023-12-29T00:12:07,2420,42.8014,5.9826,4330,272,185.776,56.925,13.331,36.075,36.654,41.236,4.582,296.0,545.2,290.5
2023-12-29T00:15:07,2420,42.8014,5.9826,4330,272,185.797,56.929,13.330,36.074,36.654,41.243,4.589,296.1,545.3,290.6
2023-12-29T00:18:07,2420,42.8014,5.9826,4330,272,185.845,56.942,13.328,36.072,36.651,41.243,4.591,296.0,545.2,290.6
2023-12-29T00:21:07,2420,42.8014,5.9826,4330,272,185.909,56.966,13.331,36.065,36.645,41.234,4.590,296.0,545.2,290.5
2023-12-29T00:24:07,2420,42.8014,5.9826,4330,272,185.452,56.825,13.331,36.096,36.675,41.259,4.584,296.0,545.2,290.5
2023-12-29T00:27:07,2420,42.8014,5.9826,4330,272,186.138,57.032,13.328,36.052,36.632,41.222,4.590,296.0,545.2,290.6
2023-12-29T00:30:08,2420,42.8014,5.9826,4330,272,185.866,56.957,13.335,36.067,36.647,41.238,4.591,296.0,545.2,290.4
2023-12-29T00:33:07,2420,42.8014,5.9826,4330,272,185.974,56.985,13.331,36.062,36.641,41.229,4.588,296.1,545.2,290.5
2023-12-29T00:36:07,2420,42.8014,5.9826,4330,272,185.677,56.899,13.335,36.079,36.659,41.245,4.586,296.0,545.2,290.4
2023-12-29T00:39:07,2420,42.8014,5.9826,4330,272,185.549,56.859,13.334,36.088,36.668,41.249,4.581,296.1,545.1,290.4
2023-12-29T00:42:07,2420,42.8014,5.9826,4330,272,185.773,56.927,13.334,36.073,36.653,41.241,4.588,296.0,545.2,290.5
2023-12-29T00:45:07,2420,42.8014,5.9826,4330,272,185.781,56.932,13.336,36.072,36.652,41.239,4.587,296.0,545.1,290.4
2023-12-29T00:48:07,2420,42.8014,5.9826,4330,272,185.827,56.942,13.332,36.071,36.650,41.233,4.583,296.1,545.1,290.5
2023-12-29T00:51:08,2420,42.8014,5.9826,4330,272,185.705,56.905,13.333,36.078,36.657,41.240,4.583,296.1,545.1,290.5
2023-12-29T00:54:08,2420,42.8014,5.9826,4330,272,185.826,56.946,13.336,36.068,36.648,41.239,4.591,296.0,545.1,290.4
2023-12-29T00:57:08,2420,42.8014,5.9826,4330,272,185.938,56.971,13.328,36.065,36.645,41.235,4.590,296.0,545.2,290.6
2023-12-29T01:00:08,2420,42.8014,5.9826,4330,272,185.899,56.965,13.333,36.065,36.645,41.232,4.587,296.0,545.2,290.5
2023-12-29T01:03:07,2420,42.8014,5.9826,4330,272,185.908,56.967,13.333,36.065,36.644,41.235,4.591,296.1,545.2,290.5
2023-12-29T01:06:07,2420,42.8014,5.9826,4330,272,185.860,56.944,13.326,36.072,36.651,41.239,4.587,296.0,545.2,290.7
2023-12-29T01:09:07,2420,42.8014,5.9826,4330,272,185.674,56.887,13.326,36.083,36.663,41.246,4.584,296.0,545.2,290.7
2023-12-29T01:12:07,2420,42.8014,5.9826,4330,272,185.595,56.874,13.335,36.084,36.664,41.257,4.593,296.0,545.2,290.4
2023-12-29T01:15:08,2420,42.8014,5.9826,4330,272,185.994,56.993,13.333,36.060,36.639,41.233,4.594,296.1,545.2,290.5
2023-12-29T01:18:08,2420,42.8014,5.9826,4330,272,185.650,56.880,13.326,36.085,36.664,41.250,4.586,296.1,545.2,290.7
2023-12-29T01:21:08,2420,42.8014,5.9826,4330,272,185.842,56.935,13.323,36.073,36.653,41.247,4.594,296.1,545.2,290.8
2023-12-29T01:24:08,2420,42.8014,5.9826,4330,272,185.706,56.903,13.331,36.079,36.659,41.250,4.592,296.0,545.3,290.6
2023-12-29T01:27:07,2420,42.8014,5.9826,4330,272,185.789,56.929,13.331,36.073,36.653,41.246,4.594,296.0,545.2,290.5
2023-12-29T01:30:07,2420,42.8014,5.9826,4330,272,185.952,56.982,13.334,36.062,36.641,41.227,4.586,296.0,545.2,290.5
2023-12-29T01:33:08,2420,42.8014,5.9826,4330,272,185.904,56.957,13.326,36.068,36.648,41.235,4.586,296.0,545.2,290.7
2023-12-29T01:36:07,2420,42.8014,5.9826,4330,272,185.869,56.949,13.328,36.070,36.649,41.241,4.592,295.9,545.2,290.6
2023-12-29T01:39:07,2420,42.8014,5.9826,4330,272,185.902,56.958,13.327,36.068,36.648,41.238,4.590,296.0,545.2,290.7
2023-12-29T01:42:07,2420,42.8014,5.9826,4330,272,185.885,56.950,13.325,36.070,36.650,41.236,4.586,296.0,545.3,290.7
2023-12-29T01:45:07,2420,42.8014,5.9826,4330,272,185.840,56.942,13.329,36.071,36.651,41.236,4.586,296.0,545.2,290.6
2023-12-29T01:48:07,2420,42.8014,5.9826,4330,272,186.114,57.017,13.322,36.057,36.637,41.224,4.588,296.0,545.3,290.8
2023-12-29T01:51:07,2420,42.8014,5.9826,4330,272,185.782,56.919,13.325,36.077,36.656,41.246,4.590,296.1,545.3,290.7
2023-12-29T01:54:07,2420,42.8014,5.9826,4330,272,185.913,56.960,13.326,36.068,36.648,41.235,4.587,296.0,545.2,290.7
2023-12-29T01:57:08,2420,42.8014,5.9826,4330,272,186.060,57.009,13.329,36.057,36.637,41.227,4.590,296.0,545.2,290.6
2023-12-29T02:00:08,2420,42.8014,5.9826,4330,272,186.019,56.996,13.329,36.059,36.639,41.229,4.590,296.0,545.2,290.6
2023-12-29T02:03:07,2420,42.8014,5.9826,4330,272,185.830,56.935,13.326,36.073,36.653,41.239,4.586,296.0,545.3,290.7
2023-12-29T02:06:07,2420,42.8014,5.9826,4330,272,185.993,56.984,13.325,36.062,36.642,41.234,4.591,296.0,545.2,290.7
2023-12-29T02:09:07,2420,42.8014,5.9826,4330,272,185.981,56.976,13.322,36.066,36.645,41.231,4.586,296.0,545.3,290.8
2023-12-29T02:12:07,2420,42.8014,5.9826,4330,272,185.876,56.947,13.325,36.071,36.650,41.236,4.586,295.9,545.3,290.7
2023-12-29T02:15:07,2420,42.8014,5.9826,4330,272,185.839,56.933,13.323,36.074,36.654,41.240,4.586,296.0,545.3,290.8
2023-12-29T02:18:08,2420,42.8014,5.9826,4330,272,185.799,56.925,13.326,36.075,36.655,41.247,4.592,296.0,545.2,290.7
2023-12-29T02:21:08,2420,42.8014,5.9826,4330,272,185.969,56.977,13.326,36.064,36.644,41.232,4.588,296.0,545.3,290.7
2023-12-29T02:24:08,2420,42.8014,5.9826,4330,272,185.941,56.962,13.321,36.068,36.648,41.233,4.585,296.1,545.3,290.9
2023-12-29T02:27:08,2420,42.8014,5.9826,4330,272,185.565,56.848,13.321,36.093,36.673,41.259,4.586,296.1,545.3,290.9
2023-12-29T02:30:07,2420,42.8014,5.9826,4330,272,185.922,56.958,13.322,36.069,36.649,41.236,4.588,296.0,545.3,290.8
2023-12-29T02:33:07,2420,42.8014,5.9826,4330,272,185.880,56.948,13.324,36.071,36.651,41.240,4.589,296.0,545.3,290.8
2023-12-29T02:36:07,2420,42.8014,5.9826,4330,272,186.015,56.996,13.330,36.059,36.639,41.227,4.588,296.0,545.3,290.6
2023-12-29T02:39:07,2420,42.8014,5.9826,4330,272,185.747,56.904,13.322,36.081,36.660,41.248,4.587,296.0,545.2,290.8
2023-12-29T02:42:07,2420,42.8014,5.9826,4330,272,185.773,56.920,13.328,36.075,36.655,41.246,4.591,296.0,545.3,290.6
2023-12-29T02:45:08,2420,42.8014,5.9826,4330,272,185.876,56.950,13.327,36.070,36.649,41.238,4.589,295.9,545.3,290.7
2023-12-29T02:48:08,2420,42.8014,5.9826,4330,272,186.007,56.985,13.323,36.064,36.643,41.229,4.585,296.0,545.3,290.8
2023-12-29T02:51:08,2420,42.8014,5.9826,4330,272,186.007,56.981,13.320,36.065,36.645,41.227,4.583,296.0,545.2,290.9
2023-12-29T02:54:08,2420,42.8014,5.9826,4330,272,186.007,56.983,13.321,36.064,36.644,41.234,4.590,296.1,545.2,290.8
2023-12-29T02:57:07,2420,42.8014,5.9826,4330,272,186.024,56.992,13.324,36.061,36.641,41.234,4.593,296.1,545.3,290.8
2023-12-29T03:00:07,2420,42.8014,5.9826,4330,272,185.691,56.893,13.326,36.082,36.662,41.253,4.591,296.0,545.3,290.7
2023-12-29T03:03:07,2420,42.8014,5.9826,4330,272,185.809,56.933,13.329,36.073,36.653,41.241,4.588,296.1,545.3,290.6
2023-12-29T03:06:07,2420,42.8014,5.9826,4330,272,185.797,56.929,13.329,36.074,36.654,41.238,4.584,296.1,545.1,290.6
2023-12-29T03:09:08,2420,42.8014,5.9826,4330,272,186.047,57.004,13.328,36.058,36.638,41.225,4.587,296.0,545.2,290.6
2023-12-29T03:12:08,2420,42.8014,5.9826,4330,272,185.973,56.979,13.327,36.063,36.643,41.232,4.589,296.0,545.2,290.7
2023-12-29T03:15:07,2420,42.8014,5.9826,4330,272,186.029,56.994,13.324,36.061,36.641,41.227,4.586,296.0,545.2,290.8
2023-12-29T03:18:07,2420,42.8014,5.9826,4330,272,185.984,56.976,13.321,36.065,36.645,41.232,4.587,296.0,545.2,290.9
2023-12-29T03:21:07,2420,42.8014,5.9826,4330,272,185.696,56.887,13.321,36.084,36.664,41.249,4.585,296.0,545.3,290.9
2023-12-29T03:24:07,2420,42.8014,5.9826,4330,272,185.996,56.987,13.327,36.062,36.642,41.231,4.589,296.0,545.3,290.7
2023-12-29T03:27:08,2420,42.8014,5.9826,4330,272,185.986,56.976,13.320,36.065,36.645,41.234,4.589,296.1,545.3,290.9
2023-12-29T03:30:08,2420,42.8014,5.9826,4330,272,185.987,56.977,13.322,36.065,36.645,41.232,4.588,295.9,545.3,290.8
2023-12-29T03:33:07,2420,42.8014,5.9826,4330,272,186.146,57.029,13.324,36.054,36.634,41.220,4.587,295.9,545.3,290.8
2023-12-29T03:36:07,2420,42.8014,5.9826,4330,272,185.809,56.919,13.318,36.078,36.658,41.244,4.586,295.9,545.2,291.0
2023-12-29T03:39:07,2420,42.8014,5.9826,4330,272,185.834,56.933,13.324,36.074,36.654,41.243,4.590,296.0,545.3,290.8
2023-12-29T03:42:07,2420,42.8014,5.9826,4330,272,186.091,57.015,13.326,36.056,36.636,41.224,4.588,295.9,545.2,290.7
2023-12-29T03:45:07,2420,42.8014,5.9826,4330,272,186.115,57.012,13.318,36.059,36.639,41.230,4.591,295.9,545.3,291.0
2023-12-29T03:48:07,2420,42.8014,5.9826,4330,272,186.049,56.991,13.317,36.063,36.643,41.227,4.584,295.9,545.3,291.0
2023-12-29T03:51:07,2420,42.8014,5.9826,4330,272,186.180,57.037,13.322,36.052,36.632,41.220,4.588,295.9,545.3,290.8
2023-12-29T03:54:07,2420,42.8014,5.9826,4330,272,185.880,56.951,13.327,36.069,36.649,41.239,4.590,296.0,545.3,290.7
2023-12-29T03:57:08,2420,42.8014,5.9826,4330,272,185.948,56.963,13.320,36.069,36.648,41.236,4.587,295.9,545.3,290.9
2023-12-29T04:00:08,2420,42.8014,5.9826,4330,272,185.838,56.926,13.317,36.077,36.657,41.244,4.587,296.0,545.3,291.0
2023-12-29T04:03:07,2420,42.8014,5.9826,4330,272,186.109,57.016,13.323,36.057,36.637,41.227,4.590,295.9,545.3,290.8
2023-12-29T04:06:07,2420,42.8014,5.9826,4330,272,185.887,56.947,13.322,36.072,36.652,41.237,4.586,295.9,545.3,290.8
2023-12-29T04:09:07,2420,42.8014,5.9826,4330,272,186.104,57.008,13.318,36.060,36.640,41.227,4.587,296.0,545.3,291.0
2023-12-29T04:12:07,2420,42.8014,5.9826,4330,272,186.104,57.012,13.320,36.058,36.638,41.225,4.587,295.9,545.2,290.9
2023-12-29T04:15:07,2420,42.8014,5.9826,4330,272,186.070,57.002,13.321,36.060,36.640,41.224,4.584,295.9,545.3,290.9
2023-12-29T04:18:07,2420,42.8014,5.9826,4330,272,185.970,56.968,13.319,36.068,36.647,41.236,4.589,296.0,545.3,290.9
2023-12-29T04:21:07,2420,42.8014,5.9826,4330,272,186.058,56.998,13.320,36.061,36.641,41.226,4.585,295.9,545.3,290.9
2023-12-29T04:24:08,2420,42.8014,5.9826,4330,272,186.050,56.989,13.316,36.064,36.643,41.235,4.592,295.9,545.3,291.0
2023-12-29T04:27:08,2420,42.8014,5.9826,4330,272,185.946,56.974,13.329,36.064,36.644,41.232,4.588,295.9,545.3,290.6
2023-12-29T04:30:08,2420,42.8014,5.9826,4330,272,185.991,56.975,13.319,36.066,36.646,41.228,4.583,295.9,545.3,290.9
2023-12-29T04:33:07,2420,42.8014,5.9826,4330,272,186.025,56.990,13.322,36.062,36.642,41.227,4.585,296.0,545.3,290.8
2023-12-29T04:36:07,2420,42.8014,5.9826,4330,272,185.841,56.930,13.320,36.075,36.655,41.243,4.588,296.0,545.2,290.9
2023-12-29T04:39:07,2420,42.8014,5.9826,4330,272,186.142,57.022,13.319,36.056,36.636,41.223,4.587,295.9,545.3,290.9
2023-12-29T04:42:07,2420,42.8014,5.9826,4330,272,186.353,57.087,13.319,36.042,36.622,41.212,4.590,295.9,545.3,290.9
2023-12-29T04:45:07,2420,42.8014,5.9826,4330,272,185.923,56.956,13.320,36.070,36.650,41.236,4.586,296.0,545.3,290.9
2023-12-29T04:48:08,2420,42.8014,5.9826,4330,272,186.084,57.007,13.321,36.059,36.638,41.225,4.587,295.9,545.2,290.9
2023-12-29T04:51:08,2420,42.8014,5.9826,4330,272,186.074,57.003,13.320,36.060,36.640,41.226,4.586,295.9,545.2,290.9
2023-12-29T04:54:08,2420,42.8014,5.9826,4330,272,186.048,56.994,13.320,36.061,36.641,41.231,4.589,295.9,545.3,290.9
2023-12-29T04:57:07,2420,42.8014,5.9826,4330,272,185.958,56.965,13.319,36.069,36.648,41.238,4.589,296.0,545.3,290.9
2023-12-29T05:00:07,2420,42.8014,5.9826,4330,272,186.089,57.016,13.327,36.056,36.636,41.224,4.589,296.0,545.3,290.7
2023-12-29T05:03:08,2420,42.8014,5.9826,4330,272,185.908,56.957,13.325,36.069,36.649,41.233,4.584,296.0,545.2,290.7
2023-12-29T05:06:07,2420,42.8014,5.9826,4330,272,185.981,56.973,13.320,36.067,36.647,41.237,4.591,296.0,545.3,290.9
2023-12-29T05:09:07,2420,42.8014,5.9826,4330,272,185.932,56.963,13.324,36.067,36.647,41.234,4.587,296.0,545.3,290.8
2023-12-29T05:12:07,2420,42.8014,5.9826,4330,272,185.823,56.932,13.325,36.074,36.654,41.238,4.584,296.0,545.3,290.7
2023-12-29T05:15:07,2420,42.8014,5.9826,4330,272,185.992,56.978,13.321,36.065,36.645,41.235,4.590,296.0,545.3,290.9
2023-12-29T05:18:07,2420,42.8014,5.9826,4330,272,186.012,56.983,13.320,36.064,36.644,41.234,4.589,296.0,545.3,290.9
2023-12-29T05:21:07,2420,42.8014,5.9826,4330,272,186.016,56.984,13.320,36.064,36.644,41.229,4.585,296.0,545.3,290.9
2023-12-29T05:24:07,2420,42.8014,5.9826,4330,272,186.083,57.008,13.322,36.059,36.639,41.228,4.589,296.1,545.3,290.8
2023-12-29T05:27:07,2420,42.8014,5.9826,4330,272,185.803,56.923,13.324,36.076,36.656,41.238,4.582,295.9,545.3,290.8
2023-12-29T05:30:08,2420,42.8014,5.9826,4330,272,186.029,56.992,13.323,36.062,36.641,41.228,4.587,295.9,545.2,290.8
2023-12-29T05:33:07,2420,42.8014,5.9826,4330,272,185.941,56.963,13.321,36.068,36.648,41.231,4.583,295.9,545.2,290.9
2023-12-29T05:36:07,2420,42.8014,5.9826,4330,272,186.182,57.029,13.315,36.055,36.635,41.222,4.587,295.9,545.3,291.0
2023-12-29T05:39:08,2420,42.8014,5.9826,4330,272,186.312,57.074,13.319,36.045,36.625,41.214,4.589,295.9,545.3,290.9
2023-12-29T05:42:08,2420,42.8014,5.9826,4330,272,185.951,56.965,13.321,36.068,36.647,41.234,4.586,295.9,545.2,290.9
2023-12-29T05:45:08,2420,42.8014,5.9826,4330,272,185.877,56.934,13.314,36.076,36.656,41.241,4.585,295.9,545.3,291.1
2023-12-29T05:48:08,2420,42.8014,5.9826,4330,272,186.154,57.025,13.319,36.055,36.635,41.228,4.593,295.8,545.3,290.9
2023-12-29T05:51:07,2420,42.8014,5.9826,4330,272,186.212,57.042,13.318,36.052,36.632,41.213,4.582,295.8,545.2,291.0
2023-12-29T05:54:07,2420,42.8014,5.9826,4330,272,186.247,57.050,13.316,36.051,36.631,41.222,4.591,295.9,545.3,291.0
2023-12-29T05:57:07,2420,42.8014,5.9826,4330,272,185.923,56.951,13.316,36.072,36.652,41.241,4.589,295.9,545.3,291.0
2023-12-29T06:00:07,2420,42.8014,5.9826,4330,272,185.937,56.958,13.318,36.070,36.650,41.240,4.590,295.9,545.4,291.0
2023-12-29T06:03:07,2420,42.8014,5.9826,4330,272,186.081,57.009,13.324,36.058,36.638,41.220,4.582,295.9,545.2,290.8
2023-12-29T06:06:07,2420,42.8014,5.9826,4330,272,185.982,56.975,13.321,36.066,36.645,41.234,4.589,296.0,545.3,290.9
2023-12-29T06:09:08,2420,42.8014,5.9826,4330,272,185.891,56.948,13.322,36.072,36.651,41.242,4.591,295.9,545.3,290.8
2023-12-29T06:12:08,2420,42.8014,5.9826,4330,272,185.973,56.968,13.318,36.068,36.648,41.232,4.584,296.0,545.2,291.0
2023-12-29T06:15:07,2420,42.8014,5.9826,4330,272,186.214,57.041,13.317,36.053,36.632,41.217,4.585,296.0,545.2,291.0
2023-12-29T06:18:07,2420,42.8014,5.9826,4330,272,186.102,57.006,13.317,36.060,36.640,41.224,4.584,295.9,545.3,291.0
2023-12-29T06:21:07,2420,42.8014,5.9826,4330,272,186.193,57.036,13.318,36.054,36.633,41.222,4.589,295.9,545.2,291.0
2023-12-29T06:24:07,2420,42.8014,5.9826,4330,272,185.897,56.948,13.320,36.071,36.651,41.236,4.585,295.9,545.3,290.9
2023-12-29T06:27:07,2420,42.8014,5.9826,4330,272,186.136,57.022,13.320,36.056,36.636,41.222,4.586,296.0,545.3,290.9
2023-12-29T06:30:07,2420,42.8014,5.9826,4330,272,186.046,56.997,13.323,36.060,36.640,41.230,4.589,295.9,545.2,290.8
2023-12-29T06:33:07,2420,42.8014,5.9826,4330,272,185.960,56.969,13.322,36.067,36.647,41.236,4.589,295.9,545.2,290.8
2023-12-29T06:36:07,2420,42.8014,5.9826,4330,272,186.169,57.025,13.315,36.057,36.636,41.225,4.588,296.0,545.3,291.1
2023-12-29T06:39:07,2420,42.8014,5.9826,4330,272,185.972,56.973,13.321,36.066,36.646,41.229,4.583,295.8,545.3,290.8
2023-12-29T06:42:08,2420,42.8014,5.9826,4330,272,186.038,56.990,13.319,36.063,36.643,41.229,4.586,295.9,545.3,290.9
2023-12-29T06:45:08,2420,42.8014,5.9826,4330,272,185.847,56.928,13.316,36.076,36.656,41.240,4.584,295.9,545.3,291.0
2023-12-29T06:48:08,2420,42.8014,5.9826,4330,272,186.073,57.008,13.325,36.058,36.637,41.219,4.582,295.9,545.2,290.7
2023-12-29T06:51:07,2420,42.8014,5.9826,4330,272,185.921,56.960,13.324,36.068,36.648,41.236,4.588,296.0,545.2,290.8
2023-12-29T06:54:07,2420,42.8014,5.9826,4330,272,185.851,56.928,13.315,36.077,36.656,41.242,4.586,295.9,545.3,291.1
2023-12-29T06:57:07,2420,42.8014,5.9826,4330,272,186.154,57.026,13.320,36.055,36.635,41.218,4.583,295.9,545.3,290.9
2023-12-29T07:00:07,2420,42.8014,5.9826,4330,272,186.246,57.052,13.318,36.050,36.630,41.215,4.585,295.8,545.3,291.0
2023-12-29T07:03:07,2420,42.8014,5.9826,4330,272,185.990,56.973,13.317,36.067,36.647,41.229,4.582,295.9,545.3,291.0
2023-12-29T07:06:07,2420,42.8014,5.9826,4330,272,186.163,57.024,13.316,36.056,36.636,41.222,4.586,295.9,545.3,291.0
2023-12-29T07:09:08,2420,42.8014,5.9826,4330,272,186.046,56.989,13.316,36.064,36.644,41.229,4.585,296.0,545.3,291.0
2023-12-29T07:12:08,2420,42.8014,5.9826,4330,272,186.075,57.005,13.322,36.060,36.640,41.229,4.590,295.8,545.2,290.8
2023-12-29T07:15:07,2420,42.8014,5.9826,4330,272,186.254,57.058,13.321,36.048,36.628,41.214,4.586,295.9,545.3,290.9
2023-12-29T07:18:07,2420,42.8014,5.9826,4330,272,186.053,56.993,13.318,36.063,36.643,41.230,4.588,295.9,545.3,291.0
2023-12-29T07:21:07,2420,42.8014,5.9826,4330,272,186.210,57.046,13.322,36.050,36.630,41.215,4.585,295.9,545.3,290.8
2023-12-29T07:24:07,2420,42.8014,5.9826,4330,272,186.093,57.006,13.319,36.059,36.639,41.223,4.584,295.9,545.2,290.9
2023-12-29T07:27:07,2420,42.8014,5.9826,4330,272,186.013,56.986,13.322,36.064,36.643,41.223,4.579,296.0,545.3,290.8
2023-12-29T07:30:08,2420,42.8014,5.9826,4330,272,185.982,56.970,13.317,36.067,36.647,41.230,4.583,295.9,545.2,291.0
2023-12-29T07:33:07,2420,42.8014,5.9826,4330,272,186.393,57.096,13.317,36.041,36.621,41.211,4.590,295.8,545.3,291.0
2023-12-29T07:36:07,2420,42.8014,5.9826,4330,272,186.064,56.998,13.319,36.061,36.641,41.228,4.587,295.9,545.3,290.9
2023-12-29T07:39:08,2420,42.8014,5.9826,4330,272,185.918,56.958,13.323,36.069,36.649,41.233,4.584,295.9,545.2,290.8
2023-12-29T07:42:08,2420,42.8014,5.9826,4330,272,186.315,57.079,13.322,36.043,36.623,41.213,4.590,295.9,545.3,290.8
2023-12-29T07:45:08,2420,42.8014,5.9826,4330,272,186.099,57.004,13.316,36.061,36.640,41.228,4.587,295.9,545.2,291.0
2023-12-29T07:48:07,2420,42.8014,5.9826,4330,272,186.028,56.982,13.315,36.065,36.645,41.233,4.588,295.9,545.3,291.1
2023-12-29T07:51:07,2420,42.8014,5.9826,4330,272,186.232,57.054,13.323,36.048,36.628,41.217,4.589,295.8,545.2,290.8
2023-12-29T07:54:07,2420,42.8014,5.9826,4330,272,186.075,57.006,13.323,36.059,36.639,41.225,4.586,295.9,545.4,290.8
2023-12-29T07:57:08,2420,42.8014,5.9826,4330,272,186.125,57.018,13.320,36.057,36.636,41.224,4.587,295.8,545.3,290.9
2023-12-29T08:00:08,2420,42.8014,5.9826,4330,272,186.237,57.054,13.322,36.049,36.629,41.219,4.591,295.9,545.1,290.8
2023-12-29T08:03:07,2420,42.8014,5.9826,4330,272,186.149,57.028,13.322,36.054,36.634,41.220,4.585,295.9,545.3,290.8
2023-12-29T08:06:07,2420,42.8014,5.9826,4330,272,186.153,57.024,13.318,36.056,36.636,41.228,4.592,295.9,545.3,291.0
2023-12-29T08:09:07,2420,42.8014,5.9826,4330,272,186.163,57.026,13.318,36.055,36.635,41.223,4.588,295.9,545.2,291.0
2023-12-29T08:12:07,2420,42.8014,5.9826,4330,272,186.001,56.984,13.323,36.063,36.643,41.234,4.591,295.9,545.2,290.8
2023-12-29T08:15:07,2420,42.8014,5.9826,4330,272,186.066,57.002,13.322,36.060,36.640,41.231,4.591,295.9,545.2,290.8
2023-12-29T08:18:07,2420,42.8014,5.9826,4330,272,186.056,56.998,13.321,36.061,36.641,41.229,4.589,295.9,545.2,290.9
2023-12-29T08:21:08,2420,42.8014,5.9826,4330,272,185.918,56.958,13.323,36.069,36.648,41.231,4.583,295.9,545.2,290.8
2023-12-29T08:24:08,2420,42.8014,5.9826,4330,272,186.174,57.033,13.320,36.053,36.633,41.220,4.587,295.8,545.2,290.9
2023-12-29T08:27:08,2420,42.8014,5.9826,4330,272,186.203,57.040,13.319,36.052,36.632,41.218,4.586,296.0,545.3,290.9
2023-12-29T08:30:08,2420,42.8014,5.9826,4330,272,186.043,56.997,13.324,36.060,36.640,41.224,4.584,295.9,545.2,290.8
2023-12-29T08:33:07,2420,42.8014,5.9826,4330,272,185.930,56.956,13.319,36.070,36.650,41.233,4.583,295.8,545.3,290.9
2023-12-29T08:36:07,2420,42.8014,5.9826,4330,272,186.162,57.035,13.325,36.052,36.632,41.219,4.587,295.9,545.2,290.7
2023-12-29T08:39:07,2420,42.8014,5.9826,4330,272,185.992,56.985,13.327,36.062,36.642,41.231,4.590,295.9,545.3,290.7
2023-12-29T08:42:07,2420,42.8014,5.9826,4330,272,186.143,57.023,13.320,36.056,36.635,41.218,4.582,295.9,545.3,290.9
2023-12-29T08:45:08,2420,42.8014,5.9826,4330,272,186.297,57.075,13.324,36.044,36.624,41.209,4.586,295.9,545.3,290.8
2023-12-29T08:48:08,2420,42.8014,5.9826,4330,272,186.053,57.003,13.326,36.059,36.639,41.227,4.588,295.9,545.2,290.7
2023-12-29T08:51:08,2420,42.8014,5.9826,4330,272,186.251,57.061,13.323,36.047,36.627,41.215,4.589,295.9,545.3,290.8
2023-12-29T08:54:08,2420,42.8014,5.9826,4330,272,185.844,56.930,13.319,36.076,36.656,41.240,4.584,295.9,545.2,290.9
2023-12-29T08:57:07,2420,42.8014,5.9826,4330,272,185.983,56.976,13.322,36.065,36.645,41.239,4.595,295.9,545.3,290.8
2023-12-29T09:00:07,2420,42.8014,5.9826,4330,272,185.950,56.965,13.321,36.068,36.648,41.236,4.588,295.9,545.2,290.9
2023-12-29T09:03:07,2420,42.8014,5.9826,4330,272,186.055,57.002,13.325,36.059,36.639,41.228,4.588,295.9,545.2,290.7
2023-12-29T09:06:07,2420,42.8014,5.9826,4330,272,185.873,56.947,13.325,36.071,36.650,41.236,4.585,295.9,545.2,290.7
2023-12-29T09:09:07,2420,42.8014,5.9826,4330,272,186.158,57.029,13.321,36.054,36.634,41.221,4.586,295.9,545.2,290.9
2023-12-29T09:12:07,2420,42.8014,5.9826,4330,272,186.215,57.046,13.321,36.050,36.630,41.215,4.585,295.9,545.3,290.9
2023-12-29T09:15:07,2420,42.8014,5.9826,4330,272,185.879,56.950,13.326,36.070,36.650,41.232,4.582,295.8,545.3,290.7
2023-12-29T09:18:08,2420,42.8014,5.9826,4330,272,185.980,56.981,13.326,36.063,36.643,41.229,4.586,295.9,545.2,290.7
2023-12-29T09:21:08,2420,42.8014,5.9826,4330,272,185.991,56.985,13.327,36.062,36.642,41.227,4.585,295.9,545.2,290.7
2023-12-29T09:24:07,2420,42.8014,5.9826,4330,272,186.151,57.024,13.319,36.056,36.636,41.222,4.587,295.9,545.3,290.9
2023-12-29T09:27:07,2420,42.8014,5.9826,4330,272,186.419,57.113,13.324,36.036,36.616,41.210,4.594,296.0,545.3,290.8
2023-12-29T09:30:07,2420,42.8014,5.9826,4330,272,186.011,56.991,13.326,36.061,36.641,41.232,4.591,295.9,545.2,290.7
2023-12-29T09:33:08,2420,42.8014,5.9826,4330,272,186.089,57.006,13.320,36.059,36.639,41.225,4.586,295.9,545.2,290.9
2023-12-29T09:36:07,2420,42.8014,5.9826,4330,272,186.056,56.995,13.319,36.062,36.642,41.229,4.587,295.9,545.3,290.9
2023-12-29T09:39:07,2420,42.8014,5.9826,4330,272,186.107,57.010,13.318,36.059,36.639,41.226,4.587,295.9,545.3,290.9
2023-12-29T09:42:07,2420,42.8014,5.9826,4330,272,186.148,57.021,13.317,36.057,36.636,41.226,4.589,295.9,545.3,291.0
2023-12-29T09:45:07,2420,42.8014,5.9826,4330,272,185.938,56.961,13.320,36.069,36.649,41.232,4.584,295.8,545.2,290.9
2023-12-29T09:48:08,2420,42.8014,5.9826,4330,272,185.972,56.972,13.321,36.066,36.646,41.232,4.586,295.9,545.3,290.9
2023-12-29T09:51:08,2420,42.8014,5.9826,4330,272,186.048,56.993,13.319,36.063,36.643,41.230,4.588,295.9,545.3,290.9
2023-12-29T09:54:08,2420,42.8014,5.9826,4330,272,186.124,57.019,13.321,36.056,36.636,41.219,4.583,295.9,545.2,290.9
2023-12-29T09:57:08,2420,42.8014,5.9826,4330,272,186.174,57.031,13.319,36.054,36.634,41.220,4.586,295.9,545.2,290.9
2023-12-29T10:00:08,2420,42.8014,5.9826,4330,272,186.132,57.023,13.323,36.055,36.635,41.217,4.582,295.8,545.3,290.8